Météo par heure à Juayùa

Ce jour, 20 Juin, Dimanche

Heure Température Précipitation Vent Pression Humidité
00:00 +19°C° 0 mm 1 m/s 667 mmHg 94%
01:00 +19°C° 0.5 mm 1 m/s 667 mmHg 94%
02:00 +19°C° 0.5 mm 1 m/s 667 mmHg 94%
03:00 +19°C° 0.5 mm 1 m/s 666 mmHg 94%
04:00 +19°C° 1.4 mm 1 m/s 667 mmHg 95%
05:00 +19°C° 1.4 mm 1 m/s 667 mmHg 96%
06:00 +19°C° 0 mm 1 m/s 667 mmHg 97%
07:00 +20°C° 0.4 mm 1 m/s 668 mmHg 94%
08:00 +21°C° 0.4 mm 1 m/s 668 mmHg 91%
09:00 +22°C° 0.4 mm 1 m/s 669 mmHg 88%
10:00 +23°C° 0.1 mm 1 m/s 669 mmHg 81%
11:00 +25°C° 0.1 mm 1 m/s 669 mmHg 74%
12:00 +27°C° 0.1 mm 1 m/s 669 mmHg 67%
13:00 +26°C° 0.5 mm 1 m/s 668 mmHg 68%
14:00 +26°C° 0.5 mm 1 m/s 668 mmHg 70%
15:00 +26°C° 0.5 mm 1 m/s 667 mmHg 72%
16:00 +25°C° 0.3 mm 1 m/s 667 mmHg 78%
17:00 +24°C° 0.3 mm 1 m/s 667 mmHg 84%
18:00 +23°C° 0.3 mm 1 m/s 667 mmHg 90%
19:00 +22°C° 0.6 mm 1 m/s 667 mmHg 92%
20:00 +21°C° 0.6 mm 1 m/s 667 mmHg 94%
21:00 +21°C° 0.6 mm 1 m/s 668 mmHg 95%
22:00 +20°C° 1.2 mm 1 m/s 667 mmHg 95%
23:00 +20°C° 1.2 mm 1 m/s 667 mmHg 96%

Demain, 21 Juin, Lundi

Heure Température Précipitation Vent Pression Humidité
00:00 +20°C° 1.2 mm 1 m/s 667 mmHg 96%
01:00 +20°C° 2.4 mm 1 m/s 667 mmHg 97%
02:00 +20°C° 2.4 mm 1 m/s 667 mmHg 97%
03:00 +20°C° 2.4 mm 1 m/s 667 mmHg 97%
04:00 +20°C° 1 mm 1 m/s 667 mmHg 97%
05:00 +20°C° 1 mm 1 m/s 667 mmHg 96%
06:00 +20°C° 1 mm 1 m/s 667 mmHg 96%
07:00 +21°C° 0 mm 1 m/s 668 mmHg 89%
08:00 +23°C° 0 mm 1 m/s 668 mmHg 82%
09:00 +25°C° 0 mm 1 m/s 669 mmHg 75%
10:00 +25°C° 0.2 mm 1 m/s 669 mmHg 73%
11:00 +26°C° 0.2 mm 1 m/s 669 mmHg 72%
12:00 +26°C° 0.2 mm 2 m/s 668 mmHg 70%
13:00 +26°C° 0.6 mm 2 m/s 668 mmHg 72%
14:00 +25°C° 0.6 mm 2 m/s 667 mmHg 74%
15:00 +25°C° 0.6 mm 2 m/s 667 mmHg 76%
16:00 +24°C° 0.2 mm 1 m/s 667 mmHg 80%
17:00 +23°C° 0.2 mm 1 m/s 666 mmHg 85%
18:00 +22°C° 0.2 mm 1 m/s 666 mmHg 90%
19:00 +22°C° 0.2 mm 1 m/s 666 mmHg 92%
20:00 +21°C° 0.2 mm 1 m/s 667 mmHg 93%
21:00 +20°C° 0.2 mm 1 m/s 667 mmHg 95%
22:00 +20°C° 0 mm 1 m/s 667 mmHg 95%
23:00 +20°C° 0 mm 1 m/s 667 mmHg 95%

Après-demain, 22 Juin, Mardi

Heure Température Précipitation Vent Pression Humidité
00:00 +19°C° 0 mm 1 m/s 667 mmHg 96%
01:00 +19°C° 0.1 mm 1 m/s 666 mmHg 95%
02:00 +19°C° 0.1 mm 1 m/s 666 mmHg 95%
03:00 +19°C° 0.1 mm 1 m/s 666 mmHg 95%
04:00 +19°C° 0 mm 1 m/s 666 mmHg 95%
05:00 +19°C° 0 mm 1 m/s 666 mmHg 95%
06:00 +19°C° 0 mm 1 m/s 666 mmHg 95%
07:00 +21°C° 0.3 mm 1 m/s 667 mmHg 89%
08:00 +23°C° 0.3 mm 1 m/s 667 mmHg 84%
09:00 +22°C° 0.3 mm 0 m/s 668 mmHg 78%
10:00 +25°C° 0.9 mm 1 m/s 668 mmHg 78%
11:00 +25°C° 0.9 mm 1 m/s 668 mmHg 78%
12:00 +25°C° 0.9 mm 1 m/s 668 mmHg 78%
13:00 +25°C° 1.7 mm 1 m/s 667 mmHg 80%
14:00 +24°C° 1.7 mm 1 m/s 667 mmHg 82%
15:00 +24°C° 1.7 mm 1 m/s 666 mmHg 85%
16:00 +23°C° 0.8 mm 1 m/s 666 mmHg 87%
17:00 +22°C° 0.8 mm 1 m/s 666 mmHg 89%
18:00 +20°C° 0.8 mm 0 m/s 666 mmHg 92%
19:00 +21°C° 0.2 mm 1 m/s 666 mmHg 93%
20:00 +21°C° 0.2 mm 1 m/s 666 mmHg 94%
21:00 +20°C° 0.2 mm 1 m/s 667 mmHg 95%
22:00 +20°C° 1.2 mm 1 m/s 667 mmHg 95%
23:00 +19°C° 1.2 mm 1 m/s 667 mmHg 96%

23 Juin, Mercredi

Heure Température Précipitation Vent Pression Humidité
00:00 +19°C° 1.2 mm 1 m/s 667 mmHg 96%
01:00 +19°C° 1.2 mm 1 m/s 666 mmHg 96%
02:00 +19°C° 1.2 mm 1 m/s 666 mmHg 96%
03:00 +19°C° 1.2 mm 1 m/s 666 mmHg 96%
04:00 +19°C° 0.8 mm 1 m/s 666 mmHg 96%
05:00 +18°C° 0.8 mm 1 m/s 666 mmHg 96%
06:00 +18°C° 0.8 mm 1 m/s 667 mmHg 96%
07:00 +20°C° 0.4 mm 1 m/s 667 mmHg 91%
08:00 +21°C° 0.4 mm 1 m/s 668 mmHg 86%
09:00 +23°C° 0.4 mm 1 m/s 669 mmHg 81%
10:00 +23°C° 0.7 mm 1 m/s 668 mmHg 82%
11:00 +23°C° 0.7 mm 1 m/s 668 mmHg 82%
12:00 +24°C° 0.7 mm 1 m/s 668 mmHg 83%
13:00 +23°C° 1.1 mm 1 m/s 668 mmHg 84%
14:00 +23°C° 1.1 mm 1 m/s 667 mmHg 86%
15:00 +23°C° 1.1 mm 2 m/s 667 mmHg 88%
16:00 +21°C° 1.1 mm 2 m/s 667 mmHg 89%
17:00 +20°C° 1.1 mm 2 m/s 667 mmHg 91%
18:00 +20°C° 1.1 mm 2 m/s 667 mmHg 93%
19:00 +20°C° 1 mm 1 m/s 667 mmHg 93%
20:00 +20°C° 1 mm 1 m/s 667 mmHg 93%
21:00 +20°C° 1 mm 1 m/s 668 mmHg 92%
22:00 +19°C° 0.1 mm 1 m/s 668 mmHg 92%
23:00 +19°C° 0.1 mm 1 m/s 667 mmHg 92%

24 Juin, Jeudi

Heure Température Précipitation Vent Pression Humidité
00:00 +19°C° 0.1 mm 1 m/s 667 mmHg 92%
01:00 +19°C° 0.4 mm 1 m/s 667 mmHg 93%
02:00 +18°C° 0.4 mm 1 m/s 667 mmHg 93%
03:00 +18°C° 0.4 mm 1 m/s 666 mmHg 93%
04:00 +18°C° 0.3 mm 1 m/s 667 mmHg 93%
05:00 +18°C° 0.3 mm 1 m/s 667 mmHg 93%
06:00 +18°C° 0.3 mm 1 m/s 667 mmHg 93%
07:00 +19°C° 0.1 mm 1 m/s 668 mmHg 89%
08:00 +21°C° 0.1 mm 1 m/s 668 mmHg 84%
09:00 +22°C° 0.1 mm 1 m/s 669 mmHg 79%
10:00 +23°C° 0.1 mm 1 m/s 669 mmHg 73%
11:00 +24°C° 0.1 mm 1 m/s 668 mmHg 67%
12:00 +25°C° 0.1 mm 2 m/s 668 mmHg 61%
13:00 +25°C° 0.2 mm 1 m/s 668 mmHg 65%
14:00 +24°C° 0.2 mm 1 m/s 667 mmHg 68%
15:00 +24°C° 0.2 mm 1 m/s 667 mmHg 71%
16:00 +23°C° 0.3 mm 1 m/s 667 mmHg 76%
17:00 +22°C° 0.3 mm 1 m/s 666 mmHg 81%
18:00 +18°C° 0.3 mm 0 m/s 666 mmHg 86%
19:00 +20°C° 0 mm 1 m/s 667 mmHg 86%
20:00 +20°C° 0 mm 1 m/s 667 mmHg 86%
21:00 +20°C° 0 mm 1 m/s 667 mmHg 86%
22:00 +20°C° 0 mm 1 m/s 667 mmHg 84%
23:00 +19°C° 0 mm 1 m/s 667 mmHg 81%

25 Juin, Vendredi

Heure Température Précipitation Vent Pression Humidité
00:00 +19°C° 0 mm 1 m/s 667 mmHg 79%
01:00 +19°C° 0 mm 1 m/s 667 mmHg 76%
02:00 +19°C° 0 mm 1 m/s 666 mmHg 74%
03:00 +19°C° 0 mm 1 m/s 666 mmHg 71%
04:00 +19°C° 0 mm 1 m/s 666 mmHg 72%
05:00 +18°C° 0 mm 1 m/s 666 mmHg 72%
06:00 +18°C° 0 mm 1 m/s 666 mmHg 73%
07:00 +20°C° 0 mm 1 m/s 666 mmHg 69%
08:00 +22°C° 0 mm 1 m/s 667 mmHg 64%
09:00 +21°C° 0 mm 0 m/s 668 mmHg 60%
10:00 +24°C° 0 mm 1 m/s 668 mmHg 59%
11:00 +25°C° 0 mm 1 m/s 667 mmHg 58%
12:00 +25°C° 0 mm 1 m/s 667 mmHg 57%
13:00 +25°C° 0 mm 1 m/s 667 mmHg 60%
14:00 +25°C° 0 mm 1 m/s 667 mmHg 62%
15:00 +24°C° 0 mm 2 m/s 666 mmHg 64%
16:00 +23°C° 0.1 mm 2 m/s 666 mmHg 72%
17:00 +21°C° 0.1 mm 2 m/s 666 mmHg 80%
18:00 +20°C° 0.1 mm 2 m/s 666 mmHg 88%
19:00 +20°C° 0 mm 1 m/s 666 mmHg 90%
20:00 +19°C° 0 mm 1 m/s 666 mmHg 92%
21:00 +19°C° 0 mm 1 m/s 666 mmHg 94%
22:00 +19°C° 0 mm 1 m/s 666 mmHg 94%
23:00 +19°C° 0 mm 1 m/s 666 mmHg 93%
Voir plus

Nous avons besoin de votre consentement

Meteoprog et ses fournisseurs de services peuvent stocker et accéder à des données personnelles telles que des cookies, des identifiants d'appareils ou d'autres technologies similaires sur votre appareil et traiter ces données pour personnaliser le contenu et les publicités, ainsi que pour fournir des fonctionnalités de médias sociaux et analyser le trafic.

  • Stocker et/ou accéder à des informations sur votre appareil

    Des cookies, des identifiants d'appareils ou d'autres informations peuvent être stockés ou accessibles sur votre appareil aux fins indiquées ci-dessus.

  • Annonces et contenus personnalisés, mesure des annonces et des contenus, connaissance de l'audience et développement de produits

    Les annonces et le contenu peuvent être personnalisés en fonction d'un profil. D'autres données peuvent être ajoutées pour mieux personnaliser les annonces et le contenu. Les performances des publicités et du contenu peuvent être mesurées. Il est possible d'obtenir des informations sur le public qui a vu les publicités et le contenu. Ces données peuvent être utilisées pour développer ou améliorer l'expérience de l'utilisateur, les systèmes et les logiciels.

En cliquant sur "J'accepte", vous autorisez l'utilisation de cookies, des identifiants d'appareils, des balises web ou d'autres technologies similaires. Vos paramètres peuvent être modifiés dans le navigateur de votre appareil.

Dans certains cas, des intérêts légitimes peuvent être invoqués plutôt qu'un consentement. Vous pouvez en savoir plus à ce sujet dans notre Politique de confidentialité et de cookies.